ARIANE 2 DEB, 40787

Orbit data source: Space-Track

ARIANE 2 DEB, 40787 is space debris in HEO originally from a launch on Fri, 27 Jan 1989 UTC launched from the French Guiana (FRGUI). Debris objects in space refer to the collection of defunct objects orbiting the Earth. Examples of debris include non-operational satellites, rocket bodies, and fragments generated from explosions, collisions, or faulty payload assembly.

Loading next visibility...
Identifier
40787, 1989-006CG
Orbit
HEO
Country
Flag of FRFR
Related business
Manufacturer
EADS/LV
Mission
Spacecraft
Bus & Motor
Unknown
Mass
Unknown
Launch date (UTC)
1989-01-27 (37 years ago)
Launch vehicle
Unknown
Launch site
French Guiana (FRGUI)
Object type
Payload
Rocket body
Debris
Shape & HBR
Unknown shape, 1.1 m
Radar Cross Section
Medium (>0.1 m² and <1 m²)

Expand to show TLE details & history
Last TLE update: 2 days ago

TLE from 2 days ago
0 ARIANE 2 DEB
1 40787U 89006CG  26171.18601618 -.00000056  00000-0 -54267-4 0  9998
2 40787   7.8330 248.4304 7112292 102.1100 319.2735  2.25290524103503
Epoch: 2026-06-20T04:27Z
TLE epoch observation values (Epoch: 2026-06-20T04:27:51.797Z)
Latitude
-3.50903°
Longitude
-113.08369°
Altitude
15,429.059 km
Speed
4.51 km/s
True Right ascension
14h 49m 08s
True Declination
-3° 30' 08"
Sunlit
Object was in daylight at epoch
Visualization orbit readout
Latitude
Unknown
Longitude
Unknown
Altitude
Unknown
Speed
Unknown
Apparent Right ascension
Unknown
Apparent Declination
Unknown
Sunlit
N/A
Visualization observer readout
Local Sidereal Time
21:36:12
Azimuth
Unknown
Elevation
Unknown
Doppler factor
Unknown
Orbital elements
Apogee altitude
35,691.647 km
Perigee altitude
721.16 km
Semi-major axis
24,584.541 km
Eccentricity
0.71123
Inclination
7.833°
RAAN
248.4304°
Arg. of periapsis
102.11°
True anomaly
231.39496°
Mean anomaly
319.2735°
Eccentric anomaly
279.02788°
Mean motion
0.56305 °/min
Orbital period
639.37 mins
BSTAR
-0.000054267
Loading maneuver chart data...
Computing Atmospheric mass density...
Loading historical data...
Loading historical data...
Loading historical data...
Loading historical data...
Loading historical data...
Loading historical data...
Loading historical data...

Documentation

Showing up to 5 results
|